Weather History for KFFA - March, 2013

Change the Weather History Date:

Sunday, March 17, 2013

  Actual Average (KECG) Record (KECG)
Temperature  
Mean Temperature 48 °F 50 °F  
Max Temperature 55 °F 61 °F 92 °F (1945)
Min Temperature 40 °F 40 °F 27 °F (1970)
Degree Days  
Heating Degree Days 18 15  
Month to date heating degree days 287  
Since 1 July heating degree days 2759  
Cooling Degree Days 0 0  
Month to date cooling degree days 0  
Year to date cooling degree days 2  
Moisture  
Dew Point 40 °F    
Average Humidity 87    
Maximum Humidity 95    
Minimum Humidity 79    
Precipitation  
Precipitation 0.00 in 0.13 in 1.72 in (1975)
Month to date precipitation 1.97  
Year to date precipitation 8.41  
Snow  
Snow 0.00 in - T in (2005)
Month to date snowfall  
Since 1 July snowfall  
Snow Depth -    
Sea Level Pressure  
Sea Level Pressure 30.04 in    
Wind  
Wind Speed 7 mph (NNE)    
Max Wind Speed 15 mph    
Max Gust Speed 22 mph    
Visibility 9 miles    
Events      
T = Trace of Precipitation, MM = Missing Value Source: NWS Daily Summary

Daily Weather History Graph

Daily Weather History Graph

Search for Another Location

Airport or City:

Trip Planner

Search our weather history database for the weather conditions in past years. The results will help you decide how hot, cold, wet, or windy it might be!

Date:

Astronomy

Mar. 17, 2013 Rise Set
Actual Time 7:10 AM EDT 7:12 PM EDT
Civil Twilight 6:44 AM EDT 7:37 PM EDT
Nautical Twilight 6:14 AM EDT 8:07 PM EDT
Astronomical Twilight 5:44 AM EDT 8:37 PM EDT
Moon 10:31 AM EDT (3/17) 12:08 AM EDT (3/17)
Length of Visible Light 12h 52m
Length of Day
12h 01m
Waxing Crescent, 31% of the Moon is Illuminated
Mar 17
Waxing Crescent
Mar 19
First Quarter
Mar 27
Full
Apr 3
Last Quarter
Apr 10
New

Hourly Weather History & Observations

Time (EDT) Temp. Windchill Dew Point Humidity Pressure Visibility Wind Dir Wind Speed Gust Speed Precip Events Conditions
12:15 AM 53.4 °F - 48.6 °F 84% 29.80 in 10.0 mi Calm Calm - N/A   Overcast
12:35 AM 53.2 °F - 49.1 °F 86% 29.80 in 10.0 mi Calm Calm - N/A   Overcast
12:55 AM 54.5 °F - 49.3 °F 83% 29.81 in 10.0 mi SW 3.5 mph - N/A   Overcast
1:15 AM 55.6 °F - 49.3 °F 79% 29.81 in 10.0 mi SW 3.5 mph - N/A   Overcast
1:35 AM 55.0 °F - 49.1 °F 80% 29.81 in 10.0 mi Calm Calm - N/A   Mostly Cloudy
1:55 AM 54.1 °F - 49.3 °F 84% 29.82 in 10.0 mi Calm Calm - N/A   Scattered Clouds
2:15 AM 53.1 °F - 49.1 °F 86% 29.84 in 10.0 mi NNW 4.6 mph - N/A   Clear
2:35 AM 50.2 °F - 46.6 °F 87% 29.86 in 7.0 mi North 6.9 mph - N/A   Clear
2:55 AM 49.1 °F - 46.4 °F 90% 29.87 in 10.0 mi North 9.2 mph - N/A   Clear
3:15 AM 47.1 °F - 44.6 °F 91% 29.89 in 2.0 mi NNE 10.4 mph 18.4 mph N/A   Overcast
3:35 AM 44.8 °F 39.0 °F 43.0 °F 93% 29.89 in 0.8 mi NNE 11.5 mph 16.1 mph N/A   Overcast
3:55 AM 43.9 °F 39.3 °F 42.6 °F 95% 29.90 in 2.5 mi North 8.1 mph 16.1 mph N/A   Overcast
4:15 AM 43.0 °F 37.7 °F 41.7 °F 95% 29.90 in 7.0 mi North 9.2 mph 18.4 mph N/A   Mostly Cloudy
4:35 AM 42.4 °F 36.5 °F 40.8 °F 94% 29.91 in 7.0 mi NNE 10.4 mph 17.3 mph N/A   Scattered Clouds
4:55 AM 42.6 °F 37.2 °F 40.6 °F 93% 29.91 in 7.0 mi NNE 9.2 mph 16.1 mph N/A   Scattered Clouds
5:15 AM 42.1 °F 36.1 °F 40.1 °F 93% 29.92 in 5.0 mi NNE 10.4 mph 20.7 mph N/A   Scattered Clouds
5:35 AM 42.1 °F 37.7 °F 40.3 °F 93% 29.94 in 5.0 mi NNE 6.9 mph - N/A   Scattered Clouds
5:55 AM 41.7 °F 35.2 °F 40.1 °F 94% 29.95 in 5.0 mi NNE 11.5 mph 17.3 mph N/A   Scattered Clouds
6:35 AM 41.5 °F 36.4 °F 40.1 °F 95% 29.96 in 5.0 mi NNE 8.1 mph - N/A   Scattered Clouds
6:55 AM 41.7 °F 35.6 °F 40.3 °F 95% 29.97 in 5.0 mi NNE 10.4 mph - N/A   Scattered Clouds
7:15 AM 41.7 °F 37.3 °F 40.3 °F 95% 29.98 in 5.0 mi NE 6.9 mph - N/A   Mostly Cloudy
7:35 AM 41.7 °F 36.1 °F 40.3 °F 95% 29.99 in 5.0 mi NNE 9.2 mph - N/A   Overcast
7:55 AM 42.4 °F 37.0 °F 40.8 °F 94% 29.99 in 5.0 mi NNE 9.2 mph - N/A   Overcast
8:15 AM 42.4 °F 36.5 °F 40.5 °F 93% 29.99 in 7.0 mi NNE 10.4 mph - N/A   Overcast
8:35 AM 42.8 °F 38.0 °F 40.6 °F 92% 29.99 in 7.0 mi NE 8.1 mph - N/A   Overcast
8:55 AM 43.0 °F 38.8 °F 40.8 °F 92% 30.01 in 7.0 mi NE 6.9 mph - N/A   Overcast
9:15 AM 43.7 °F 39.1 °F 41.0 °F 90% 30.01 in 7.0 mi NNE 8.1 mph - N/A   Overcast
9:35 AM 43.7 °F 38.6 °F 40.8 °F 90% 30.03 in 7.0 mi NNE 9.2 mph - N/A   Overcast
9:55 AM 44.2 °F 40.3 °F 41.2 °F 89% 30.04 in 7.0 mi NE 6.9 mph - N/A   Overcast
10:15 AM 44.1 °F 39.5 °F 40.8 °F 88% 30.04 in 7.0 mi NNE 8.1 mph - N/A   Overcast
10:35 AM 43.9 °F 39.9 °F 40.3 °F 87% 30.05 in 7.0 mi NNE 6.9 mph 16.1 mph N/A   Overcast
10:55 AM 44.1 °F 39.0 °F 40.1 °F 86% 30.05 in 10.0 mi NNE 9.2 mph 16.1 mph N/A   Overcast
11:15 AM 44.1 °F 39.5 °F 39.7 °F 85% 30.07 in 10.0 mi NNE 8.1 mph 16.1 mph N/A   Overcast
11:35 AM 44.1 °F 40.1 °F 39.4 °F 84% 30.09 in 10.0 mi North 6.9 mph 16.1 mph N/A   Overcast
11:55 AM 44.2 °F 39.2 °F 39.4 °F 83% 30.09 in 10.0 mi NNE 9.2 mph - N/A   Overcast
12:15 PM 45.0 °F 40.6 °F 39.4 °F 81% 30.09 in 10.0 mi NNE 8.1 mph 16.1 mph N/A   Overcast
12:35 PM 44.6 °F 40.2 °F 39.2 °F 81% 30.11 in 10.0 mi North 8.1 mph 17.3 mph N/A   Overcast
12:55 PM 43.7 °F 39.1 °F 38.8 °F 83% 30.11 in 10.0 mi NNE 8.1 mph 18.4 mph N/A   Overcast
1:15 PM 43.2 °F 37.9 °F 38.5 °F 84% 30.11 in 10.0 mi North 9.2 mph 17.3 mph N/A   Overcast
1:35 PM 42.6 °F 37.2 °F 38.1 °F 84% 30.10 in 10.0 mi North 9.2 mph 20.7 mph N/A   Overcast
1:55 PM 42.1 °F 36.1 °F 37.4 °F 83% 30.09 in 10.0 mi North 10.4 mph 20.7 mph N/A   Overcast
2:15 PM 41.4 °F 34.0 °F 36.9 °F 84% 30.09 in 10.0 mi NNE 13.8 mph 20.7 mph N/A   Overcast
2:35 PM 41.4 °F 36.8 °F 36.7 °F 83% 30.10 in 10.0 mi NNE 6.9 mph 19.6 mph N/A   Overcast
2:55 PM 41.2 °F 34.5 °F 36.7 °F 84% 30.09 in 10.0 mi NNE 11.5 mph 20.7 mph N/A   Overcast
3:15 PM 41.2 °F 34.1 °F 36.7 °F 84% 30.08 in 10.0 mi NNE 12.7 mph 19.6 mph N/A   Overcast
3:35 PM 41.0 °F 33.9 °F 36.5 °F 84% 30.08 in 10.0 mi NNE 12.7 mph 20.7 mph N/A   Overcast
3:55 PM 41.2 °F 34.1 °F 36.3 °F 83% 30.08 in 10.0 mi NNE 12.7 mph 21.9 mph N/A   Overcast
4:15 PM 41.0 °F 33.1 °F 36.1 °F 83% 30.08 in 10.0 mi NNE 15.0 mph 21.9 mph N/A   Overcast
4:35 PM 40.8 °F 34.1 °F 36.1 °F 83% 30.08 in 10.0 mi NNE 11.5 mph 21.9 mph N/A   Overcast
4:55 PM 40.8 °F 34.5 °F 36.1 °F 83% 30.08 in 10.0 mi NNE 10.4 mph 20.7 mph N/A   Overcast
5:15 PM 40.6 °F 33.8 °F 36.1 °F 84% 30.09 in 10.0 mi NNE 11.5 mph 17.3 mph N/A   Overcast
5:35 PM 40.6 °F 33.8 °F 36.3 °F 85% 30.09 in 10.0 mi NNE 11.5 mph 19.6 mph N/A   Overcast
5:55 PM 40.6 °F 33.4 °F 36.5 °F 85% 30.10 in 10.0 mi NNE 12.7 mph 21.9 mph N/A   Overcast
6:15 PM 40.6 °F 34.3 °F 36.7 °F 86% 30.12 in 10.0 mi NNE 10.4 mph 16.1 mph N/A   Overcast
6:35 PM 40.8 °F 34.5 °F 36.9 °F 86% 30.13 in 10.0 mi NNE 10.4 mph 18.4 mph N/A   Overcast
6:55 PM 40.8 °F 34.1 °F 36.7 °F 85% 30.14 in 10.0 mi NNE 11.5 mph 18.4 mph N/A   Overcast
7:15 PM 40.8 °F 34.5 °F 36.5 °F 85% 30.14 in 10.0 mi NNE 10.4 mph 18.4 mph N/A   Overcast
7:35 PM 40.3 °F 34.9 °F 36.0 °F 85% 30.16 in 10.0 mi NNE 8.1 mph 17.3 mph N/A   Overcast
7:55 PM 40.5 °F 34.6 °F 36.3 °F 85% 30.17 in 10.0 mi NNE 9.2 mph - N/A   Overcast
8:15 PM 40.6 °F 35.4 °F 36.7 °F 86% 30.19 in 10.0 mi NNE 8.1 mph - N/A   Overcast
8:35 PM 40.8 °F 34.5 °F 36.9 °F 86% 30.18 in 10.0 mi NNE 10.4 mph 17.3 mph N/A   Overcast
8:55 PM 40.8 °F 35.0 °F 37.2 °F 87% 30.18 in 10.0 mi NE 9.2 mph - N/A   Overcast
9:15 PM 41.0 °F 33.9 °F 37.4 °F 87% 30.18 in 10.0 mi NE 12.7 mph 20.7 mph N/A   Overcast
9:35 PM 41.0 °F 35.2 °F 37.4 °F 87% 30.18 in 10.0 mi NE 9.2 mph - N/A   Overcast
9:55 PM 40.8 °F 34.5 °F 37.0 °F 86% 30.18 in 10.0 mi NE 10.4 mph 17.3 mph N/A   Overcast
10:15 PM 40.8 °F 35.0 °F 37.2 °F 87% 30.20 in 10.0 mi NE 9.2 mph 18.4 mph N/A   Overcast
10:35 PM 41.0 °F 34.7 °F 37.9 °F 89% 30.19 in 10.0 mi NE 10.4 mph 17.3 mph N/A   Overcast
10:55 PM 41.4 °F 34.7 °F 38.1 °F 88% 30.20 in 10.0 mi ENE 11.5 mph 20.7 mph N/A   Overcast
11:15 PM 41.4 °F 35.2 °F 37.6 °F 86% 30.20 in 10.0 mi ENE 10.4 mph 17.3 mph N/A   Overcast
11:35 PM 41.7 °F 37.3 °F 37.8 °F 86% 30.19 in 10.0 mi ENE 6.9 mph 17.3 mph N/A   Overcast
11:55 PM 41.9 °F 36.9 °F 38.3 °F 87% 30.20 in 10.0 mi ENE 8.1 mph - N/A   Overcast